Temp
-12 -12 -12 -12 -12 -12 -12 -11 -11 -12 -12 -12 -11 -12 -12 -11 -12 -12 -12 -12 -12 -12 -12 -12 -12 -12 -13 -13 -13 -14 -14 -15 -15 -15 -17 -18 -19 -19 -20 -20 -20 -20 -20 -20
-12 -12 -12 -12 -12 -12 -12 -12 -12 -12 -12 -11 -12 -12 -12 -12 -12 -12 -12 -12 -12 -12 -12 -12 -12 -12 -13 -13 -13 -14 -14 -16 -15 -16 -17 -18 -18 -19 -20 -20 -20 -20 -20 -20
-12 -12 -12 -12 -12 -12 -12 -12 -12 -12 -12 -11 -11 -11 -12 -12 -12 -12 -12 -12 -12 -12 -12 -12 -13 -13 -13 -13 -13 -14 -15 -16 -15 -15 -17 -18 -18 -19 -19 -20 -20 -20 -20 -20
-12 -12 -12 -12 -12 -12 -12 -12 -12 -12 -12 -11 -11 -11 -12 -12 -12 -12 -12 -12 -13 -13 -12 -12 -13 -13 -13 -13 -13 -14 -15 -16 -16 -16 -17 -18 -19 -19 -20 -20 -21 -21 -20 -20
-12 -12 -12 -12 -12 -12 -13 -12 -12 -12 -12 -12 -12 -12 -12 -12 -12 -12 -12 -13 -13 -13 -13 -12 -13 -13 -13 -13 -13 -14 -15 -16 -16 -16 -17 -18 -18 -19 -20 -20 -21 -21 -21 -20
-12 -13 -12 -12 -12 -13 -13 -13 -12 -12 -12 -12 -12 -12 -12 -12 -12 -12 -13 -13 -13 -13 -13 -12 -13 -13 -13 -13 -13 -14 -14 -15 -16 -17 -17 -17 -18 -19 -19 -20 -21 -21 -21 -21
-13 -13 -13 -13 -13 -13 -13 -13 -12 -12 -12 -12 -12 -12 -12 -12 -12 -12 -13 -13 -13 -13 -13 -13 -13 -13 -13 -13 -13 -14 -14 -15 -16 -16 -17 -17 -18 -18 -19 -19 -21 -21 -21 -21
-13 -13 -13 -13 -13 -13 -13 -13 -13 -12 -12 -12 -12 -12 -12 -13 -13 -12 -13 -13 -13 -13 -13 -13 -13 -13 -13 -13 -13 -13 -14 -15 -15 -16 -17 -17 -17 -18 -19 -19 -21 -21 -21 -21
-13 -13 -13 -13 -13 -13 -13 -13 -13 -13 -13 -13 -12 -12 -12 -13 -13 -12 -12 -13 -13 -13 -13 -13 -13 -13 -13 -13 -13 -13 -14 -14 -15 -15 -16 -16 -17 -18 -19 -19 -20 -20 -21 -20
-14 -14 -14 -14 -14 -13 -13 -13 -13 -13 -13 -13 -13 -12 -12 -13 -13 -12 -12 -13 -13 -13 -13 -13 -13 -13 -13 -13 -13 -13 -14 -14 -15 -15 -15 -16 -17 -17 -18 -19 -20 -20 -20 -19
-14 -14 -14 -14 -14 -14 -14 -14 -13 -13 -13 -13 -13 -13 -12 -13 -13 -12 -13 -13 -12 -13 -13 -13 -13 -13 -13 -13 -13 -13 -13 -14 -14 -15 -15 -16 -16 -17 -17 -18 -19 -20 -19 -18
-15 -14 -14 -14 -14 -14 -14 -14 -14 -14 -14 -13 -13 -13 -13 -13 -13 -12 -13 -13 -13 -13 -13 -13 -13 -13 -13 -13 -13 -13 -13 -14 -14 -15 -15 -16 -15 -15 -16 -16 -17 -19 -17 -17
-15 -14 -14 -15 -14 -13 -13 -14 -14 -14 -14 -14 -13 -14 -13 -13 -13 -13 -13 -13 -13 -13 -13 -13 -13 -14 -13 -13 -13 -13 -13 -13 -14 -14 -15 -15 -15 -15 -14 -15 -16 -16 -16 -15
-15 -15 -14 -14 -15 -15 -14 -14 -14 -14 -14 -14 -14 -13 -13 -12 -12 -13 -13 -13 -13 -13 -13 -13 -13 -14 -14 -14 -13 -13 -14 -13 -13 -14 -14 -15 -15 -15 -14 -14 -14 -15 -15 -14
-16 -15 -15 -15 -15 -15 -14 -14 -14 -14 -14 -14 -14 -14 -13 -11 -12 -13 -13 -13 -13 -13 -13 -14 -13 -14 -14 -14 -14 -13 -13 -14 -14 -13 -14 -14 -14 -15 -15 -14 -15 -15 -15 -15
-15 -15 -15 -16 -15 -15 -15 -14 -14 -14 -13 -14 -14 -14 -12 -12 -13 -14 -14 -13 -13 -14 -13 -14 -13 -14 -14 -14 -14 -14 -13 -14 -14 -14 -13 -14 -14 -14 -15 -15 -15 -15 -15 -15
-16 -15 -16 -16 -16 -16 -13 -12 -13 -14 -14 -14 -13 -14 -13 -13 -13 -14 -14 -14 -14 -14 -14 -13 -14 -14 -14 -14 -14 -14 -14 -14 -14 -14 -14 -14 -14 -14 -15 -15 -15 -15 -15 -15
-16 -16 -16 -16 -16 -14 -12 -13 -13 -14 -14 -14 -14 -14 -13 -13 -13 -13 -14 -14 -14 -14 -14 -14 -14 -14 -14 -14 -14 -14 -14 -14 -14 -14 -14 -14 -14 -14 -14 -14 -15 -15 -15 -15
-16 -16 -16 -15 -14 -14 -13 -13 -13 -14 -14 -15 -14 -14 -13 -13 -13 -14 -14 -14 -14 -14 -14 -14 -14 -14 -14 -14 -15 -15 -14 -14 -14 -14 -14 -14 -14 -14 -14 -14 -14 -14 -15 -15
-17 -17 -16 -15 -15 -13 -13 -14 -14 -14 -14 -16 -14 -13 -13 -13 -14 -14 -14 -14 -14 -14 -14 -14 -15 -14 -14 -15 -15 -15 -15 -14 -14 -14 -14 -14 -14 -14 -14 -15 -14 -14 -14 -14
-15 -17 -15 -15 -13 -13 -13 -14 -13 -14 -14 -16 -14 -14 -13 -14 -14 -14 -14 -14 -15 -15 -14 -14 -15 -15 -15 -15 -15 -15 -15 -15 -15 -15 -14 -14 -15 -14 -14 -14 -15 -15 -15 -15
-16 -16 -15 -15 -13 -11 -12 -12 -11 -15 -16 -16 -14 -14 -14 -14 -14 -14 -14 -14 -15 -15 -15 -15 -14 -15 -15 -15 -15 -15 -15 -15 -15 -15 -15 -15 -15 -15 -15 -15 -15 -15 -15 -15
-16 -15 -15 -15 -12 -13 -13 -14 -15 -16 -16 -16 -15 -14 -14 -14 -14 -14 -14 -14 -15 -15 -15 -15 -15 -15 -15 -15 -16 -15 -15 -15 -15 -15 -15 -15 -15 -15 -15 -15 -15 -15 -15 -15
-15 -15 -16 -16 -14 -14 -14 -15 -16 -16 -17 -16 -15 -15 -15 -14 -14 -14 -14 -14 -15 -15 -15 -15 -15 -15 -15 -15 -15 -16 -16 -15 -16 -16 -16 -16 -16 -16 -16 -16 -16 -16 -16 -16
-16 -16 -15 -15 -14 -15 -15 -16 -17 -17 -16 -16 -16 -15 -15 -14 -15 -14 -14 -15 -15 -15 -15 -15 -15 -15 -15 -15 -15 -15 -15 -15 -16 -16 -16 -16 -16 -16 -16 -16 -16 -16 -16 -17
-16 -15 -15 -14 -15 -15 -16 -18 -17 -17 -17 -16 -16 -15 -14 -15 -15 -15 -15 -15 -15 -16 -15 -15 -15 -16 -15 -15 -15 -15 -16 -16 -16 -16 -16 -16 -16 -16 -16 -16 -16 -16 -17 -17
Height
5800 5799 5799 5798 5797 5796 5795 5794 5793 5790 5788 5787 5784 5781 5777 5775 5775 5773 5770 5768 5765 5763 5759 5754 5749 5742 5734 5726 5715 5703 5689 5675 5662 5649 5636 5625 5619 5614 5613 5613 5614 5615 5616 5618
5796 5795 5795 5793 5793 5791 5791 5790 5789 5786 5784 5782 5780 5777 5774 5772 5770 5769 5766 5764 5761 5758 5755 5751 5746 5739 5731 5722 5711 5699 5685 5672 5659 5646 5634 5625 5618 5614 5612 5611 5613 5613 5615 5616
5790 5791 5790 5789 5788 5788 5787 5786 5785 5782 5780 5778 5775 5774 5771 5769 5766 5765 5763 5760 5758 5755 5751 5747 5742 5736 5728 5720 5709 5695 5682 5669 5656 5646 5634 5624 5619 5614 5611 5610 5610 5611 5612 5615
5786 5786 5785 5784 5784 5784 5783 5782 5780 5778 5777 5775 5772 5771 5768 5765 5763 5761 5759 5757 5754 5752 5748 5743 5739 5732 5725 5717 5706 5693 5680 5667 5655 5645 5635 5625 5619 5614 5610 5608 5607 5608 5610 5613
5782 5781 5780 5780 5780 5780 5780 5777 5776 5774 5773 5771 5768 5767 5764 5762 5760 5758 5756 5753 5750 5747 5744 5740 5735 5730 5722 5714 5704 5692 5679 5666 5655 5645 5636 5626 5618 5612 5607 5605 5604 5604 5606 5609
5775 5775 5776 5775 5775 5775 5774 5772 5771 5770 5769 5768 5765 5763 5761 5758 5757 5754 5752 5749 5746 5744 5741 5737 5733 5728 5721 5714 5703 5692 5680 5668 5657 5645 5636 5627 5619 5611 5605 5601 5599 5598 5601 5606
5769 5770 5770 5771 5770 5770 5769 5767 5765 5766 5765 5764 5762 5760 5757 5754 5752 5751 5748 5746 5743 5741 5738 5734 5730 5726 5720 5713 5704 5693 5681 5668 5658 5647 5637 5628 5620 5613 5606 5600 5595 5594 5598 5605
5762 5764 5765 5766 5765 5764 5764 5762 5761 5758 5759 5761 5759 5755 5752 5749 5749 5747 5744 5743 5740 5737 5735 5732 5728 5724 5719 5712 5705 5695 5683 5671 5661 5650 5638 5630 5622 5615 5608 5602 5597 5596 5600 5608
5754 5755 5757 5758 5758 5759 5759 5758 5756 5754 5753 5753 5755 5752 5748 5744 5745 5743 5740 5739 5736 5734 5732 5729 5725 5722 5718 5711 5705 5696 5686 5675 5664 5653 5642 5634 5626 5619 5613 5607 5603 5604 5607 5615
5745 5747 5749 5751 5751 5752 5752 5753 5751 5750 5747 5747 5749 5747 5741 5740 5740 5739 5736 5734 5732 5730 5728 5726 5723 5720 5717 5711 5706 5699 5689 5679 5669 5658 5647 5639 5631 5625 5619 5614 5609 5609 5615 5624
5736 5738 5741 5742 5743 5745 5745 5746 5745 5744 5744 5740 5741 5742 5736 5735 5734 5735 5732 5730 5728 5727 5725 5723 5721 5718 5715 5711 5706 5701 5693 5684 5674 5665 5654 5645 5639 5633 5627 5622 5619 5620 5624 5633
5725 5725 5728 5733 5734 5734 5736 5738 5738 5738 5739 5737 5736 5738 5732 5729 5729 5731 5728 5726 5725 5723 5721 5720 5719 5717 5714 5710 5706 5701 5696 5688 5679 5671 5663 5653 5646 5640 5636 5632 5628 5627 5632 5640
5712 5714 5717 5720 5723 5725 5729 5731 5731 5731 5732 5732 5732 5732 5725 5722 5725 5728 5724 5722 5721 5720 5718 5717 5716 5715 5712 5709 5706 5702 5699 5693 5685 5677 5670 5662 5653 5648 5645 5641 5641 5639 5640 5647
5699 5704 5706 5710 5717 5720 5719 5722 5722 5724 5726 5725 5728 5728 5719 5717 5721 5722 5720 5717 5717 5716 5715 5714 5713 5712 5710 5708 5705 5702 5699 5696 5690 5684 5677 5670 5663 5655 5653 5651 5650 5653 5654 5656
5685 5691 5695 5700 5705 5707 5710 5712 5713 5716 5719 5720 5722 5721 5713 5713 5715 5716 5715 5714 5713 5712 5711 5710 5710 5709 5708 5706 5704 5702 5699 5697 5694 5689 5683 5678 5672 5665 5660 5659 5660 5660 5664 5667
5672 5678 5684 5689 5693 5696 5698 5700 5701 5707 5713 5714 5713 5715 5708 5709 5710 5709 5709 5709 5709 5708 5708 5706 5706 5705 5705 5704 5702 5701 5699 5697 5695 5692 5689 5684 5680 5675 5669 5666 5664 5667 5669 5671
5660 5666 5671 5676 5681 5684 5685 5687 5693 5699 5704 5706 5706 5708 5704 5704 5704 5703 5702 5704 5704 5704 5704 5702 5702 5701 5701 5701 5700 5699 5697 5696 5695 5693 5692 5689 5686 5682 5679 5676 5674 5671 5671 5673
5648 5654 5658 5663 5668 5667 5675 5680 5685 5690 5695 5697 5699 5701 5698 5700 5698 5697 5697 5698 5698 5698 5700 5699 5698 5697 5698 5698 5697 5696 5695 5695 5694 5693 5692 5691 5690 5688 5685 5682 5681 5680 5679 5678
5635 5641 5646 5649 5654 5660 5662 5666 5675 5684 5689 5689 5691 5693 5691 5693 5693 5693 5693 5693 5693 5691 5693 5695 5694 5693 5693 5694 5694 5694 5693 5693 5693 5693 5692 5691 5690 5689 5688 5688 5686 5684 5683 5683
5619 5626 5632 5637 5640 5642 5650 5659 5664 5671 5675 5682 5681 5682 5684 5686 5686 5686 5686 5688 5687 5686 5687 5688 5690 5689 5689 5690 5690 5690 5690 5690 5690 5691 5690 5690 5690 5689 5689 5689 5688 5688 5687 5686
5606 5610 5617 5623 5629 5634 5639 5646 5652 5657 5675 5672 5672 5671 5675 5678 5680 5679 5680 5681 5682 5680 5680 5682 5683 5684 5684 5684 5685 5686 5686 5686 5687 5687 5688 5688 5687 5687 5687 5687 5687 5688 5688 5687
5597 5602 5607 5614 5619 5622 5629 5635 5641 5653 5657 5660 5664 5666 5667 5669 5671 5673 5673 5674 5676 5675 5674 5676 5677 5678 5680 5680 5680 5681 5682 5683 5683 5684 5684 5685 5685 5685 5686 5686 5685 5685 5686 5686
5580 5590 5596 5602 5612 5617 5622 5631 5636 5643 5645 5650 5654 5656 5659 5661 5663 5665 5666 5669 5670 5670 5668 5670 5671 5672 5674 5675 5676 5676 5677 5678 5679 5680 5680 5680 5681 5681 5682 5682 5683 5683 5683 5683
5569 5578 5585 5591 5601 5604 5609 5618 5623 5630 5634 5639 5643 5644 5648 5652 5655 5657 5659 5661 5662 5664 5662 5664 5667 5667 5668 5669 5670 5670 5672 5673 5674 5674 5675 5676 5676 5677 5677 5678 5678 5679 5679 5679
5558 5565 5575 5579 5586 5592 5597 5605 5613 5617 5623 5627 5631 5632 5636 5641 5645 5649 5651 5653 5655 5657 5657 5657 5660 5663 5663 5663 5664 5665 5666 5667 5669 5669 5669 5670 5671 5672 5672 5672 5672 5673 5673 5672
5543 5555 5560 5573 5577 5583 5588 5593 5599 5604 5610 5613 5615 5617 5623 5633 5636 5640 5642 5643 5646 5647 5649 5650 5653 5655 5657 5658 5658 5658 5660 5661 5662 5662 5663 5664 5665 5665 5666 5666 5666 5665 5665 5665
Wind_Speed
20 19 19 17 16 16 17 18 18 16 17 18 19 18 21 22 19 19 20 19 19 19 19 22 25 28 32 38 42 48 53 49 43 43 39 26 20 12 10 9 9 13 15 23
20 19 19 18 16 16 16 16 16 15 17 16 17 17 19 19 19 19 19 19 19 19 19 22 24 27 32 37 43 47 52 47 39 36 34 24 18 13 9 7 10 11 14 18
21 18 19 19 17 17 17 16 16 15 16 17 17 14 18 19 18 17 17 17 18 18 18 21 24 27 30 37 41 46 50 45 38 33 30 23 16 10 4 7 11 12 13 17
21 18 18 18 18 19 19 18 17 17 17 16 17 15 16 17 17 16 16 18 18 18 17 20 23 27 30 35 40 45 48 44 38 33 28 23 15 14 11 11 13 13 15 22
22 20 20 19 20 20 21 21 20 18 17 17 18 17 17 16 15 16 16 17 17 17 17 19 22 27 30 33 39 44 47 42 42 33 27 24 21 22 15 12 13 12 17 26
26 22 22 22 22 23 23 23 21 18 17 16 19 18 16 16 17 18 17 15 16 17 17 18 22 26 28 31 37 42 47 40 39 38 27 24 23 19 15 11 8 9 17 26
28 26 25 22 23 24 24 23 23 21 17 15 17 18 19 16 16 19 19 16 15 17 17 18 20 24 26 29 35 39 45 40 39 37 28 26 25 21 18 20 11 6 14 28
33 30 28 26 25 25 24 22 23 25 20 15 16 19 20 19 16 19 20 16 17 19 17 17 19 22 24 27 31 36 42 40 38 37 31 21 21 20 20 19 16 9 15 27
36 35 34 31 29 27 24 22 23 24 24 21 14 16 22 22 16 18 23 18 18 18 17 16 17 20 23 25 28 33 38 39 38 38 30 24 21 18 17 19 15 10 21 33
39 39 36 34 33 30 27 24 24 24 26 24 14 14 22 23 20 19 21 17 16 15 16 15 15 18 20 22 25 29 33 38 34 38 30 26 17 12 19 18 21 13 33 34
40 40 39 37 34 32 31 27 26 27 24 26 21 14 20 22 20 17 16 14 14 14 15 13 14 15 18 19 22 25 29 34 34 35 36 24 23 19 16 12 20 19 32 35
38 44 43 39 38 37 35 31 30 30 26 23 22 14 18 20 18 15 14 14 13 13 13 12 12 14 16 17 19 23 26 29 33 30 32 31 22 21 20 17 15 20 36 34
49 48 42 42 42 41 35 33 34 31 27 22 19 15 23 24 21 15 14 15 13 13 13 12 11 12 14 16 17 18 21 24 28 32 28 31 27 20 24 26 23 23 31 33
53 53 50 46 39 36 39 37 36 34 28 26 18 10 24 25 20 13 14 17 14 13 13 12 11 10 13 14 15 14 17 20 22 27 31 27 28 23 15 23 27 28 26 30
56 55 54 49 45 44 45 44 43 38 31 25 19 12 25 22 15 12 14 15 15 11 12 13 11 11 11 12 12 13 13 15 18 20 24 29 27 28 22 15 21 22 25 26
61 58 52 49 48 50 49 47 45 38 27 25 23 14 23 19 16 13 15 15 15 12 9 12 11 11 11 11 10 10 9 12 13 15 17 21 25 26 27 20 15 16 20 23
64 60 55 55 52 53 50 49 45 37 28 31 24 18 23 21 18 15 18 17 17 15 12 11 12 12 11 11 10 8 8 7 9 11 12 15 19 22 25 22 22 15 13 12
63 62 59 58 59 56 46 44 42 36 27 27 27 20 27 20 20 17 16 17 17 17 15 14 12 13 13 13 12 10 8 7 6 7 8 9 11 15 18 19 21 19 17 17
57 63 63 63 60 56 49 47 45 38 27 28 29 25 26 22 20 18 18 19 19 14 16 17 14 14 15 15 15 14 10 8 6 5 6 7 6 7 9 12 15 15 15 15
58 61 64 62 60 55 47 46 47 40 33 22 32 30 27 24 20 17 17 20 20 15 14 19 18 16 16 16 17 16 13 11 10 7 5 5 6 5 3 3 5 7 10 11
56 62 58 56 51 48 45 44 45 46 25 24 32 34 31 27 23 19 20 20 22 17 15 17 19 20 19 19 19 18 17 14 13 11 10 8 5 5 5 3 2 1 1 2
49 55 55 53 52 46 42 42 43 36 24 32 35 33 35 32 26 20 18 19 22 17 14 16 17 19 18 18 20 19 19 17 15 14 13 13 11 9 7 6 6 5 5 5
55 52 54 55 45 48 47 47 45 39 32 32 33 35 34 32 30 24 22 21 20 20 16 18 17 17 18 18 19 21 20 19 17 17 18 17 16 14 12 11 10 10 9 9
55 53 53 53 49 51 52 50 43 43 38 33 38 39 39 37 34 27 26 26 23 23 18 19 21 18 16 17 18 21 21 20 19 19 19 19 17 17 16 17 15 14 15 15
56 56 53 49 50 51 51 50 44 40 39 40 41 43 41 39 32 29 27 29 28 26 23 20 20 22 22 19 18 18 18 18 19 21 19 17 18 19 19 20 20 20 20 19
60 53 51 46 45 45 44 46 47 44 39 42 45 45 47 38 33 30 29 31 31 29 29 23 22 22 26 25 21 20 19 20 20 20 20 18 18 18 18 19 21 22 23 24
Wind_Direction
283 277 270 269 273 278 281 286 287 288 300 309 307 301 301 305 303 299 302 306 303 307 311 320 330 338 343 344 343 343 343 343 346 345 344 345 335 323 309 271 256 250 243 226
277 275 268 267 273 282 285 286 288 301 312 312 306 306 305 305 305 304 306 305 300 308 312 321 331 339 344 348 345 346 345 346 347 354 354 352 344 339 334 268 253 257 243 221
274 271 267 269 273 283 286 288 296 305 309 315 313 315 307 306 306 307 306 301 301 309 313 319 332 338 345 350 350 351 347 349 348 353 1 356 354 358 324 236 238 251 238 218
273 271 272 269 273 280 285 288 297 304 308 313 312 318 310 306 306 307 308 305 305 309 311 317 332 340 345 353 352 353 351 353 349 351 2 2 350 337 307 269 258 252 226 211
263 271 271 269 272 278 287 289 295 300 304 308 311 315 314 309 310 308 313 310 306 305 308 313 330 340 345 357 355 356 355 355 357 351 352 358 345 340 327 302 289 273 219 206
256 265 268 269 272 280 288 289 290 297 303 302 305 310 309 310 309 308 310 313 305 302 309 309 324 336 346 358 358 360 358 357 357 356 350 3 356 349 358 355 316 248 208 199
254 259 264 272 273 279 290 289 291 293 300 302 298 302 304 314 310 309 305 308 309 303 309 311 321 333 346 360 2 3 360 1 3 4 357 357 5 9 17 7 347 205 193 183
251 257 264 268 274 278 287 291 290 294 298 301 295 296 302 306 316 313 311 301 300 308 308 313 321 329 344 356 6 3 6 2 8 3 0 360 8 14 17 14 22 96 157 168
251 254 260 264 269 273 277 286 290 293 294 305 296 287 293 299 312 315 310 306 303 301 303 311 321 326 339 357 9 6 10 6 10 7 7 22 27 20 29 32 59 92 135 139
247 251 254 259 261 265 272 278 287 291 297 300 310 293 286 294 304 313 312 312 307 300 298 307 318 324 335 354 8 11 12 10 12 13 16 27 39 40 36 46 76 90 131 140
245 245 249 252 256 261 266 273 281 286 294 298 306 297 276 287 298 304 307 316 314 301 299 300 313 324 332 349 5 15 16 16 15 22 20 27 32 39 47 62 84 98 132 139
236 242 246 249 252 255 259 269 276 282 288 294 297 305 288 290 301 303 307 307 312 309 298 291 305 320 332 343 358 16 15 21 19 24 27 29 36 37 50 75 103 126 130 141
236 240 241 245 247 252 264 272 273 278 282 289 294 292 294 288 297 304 295 301 308 311 296 282 292 312 326 340 347 7 21 24 25 29 30 31 31 54 62 74 110 124 139 136
242 242 243 245 255 258 259 264 268 272 277 280 285 298 277 283 303 294 290 293 304 302 294 282 274 296 312 329 340 354 15 24 32 35 35 34 38 38 74 80 93 110 131 142
233 240 241 242 246 251 256 261 266 271 269 277 271 276 261 291 313 285 285 288 295 293 293 280 272 275 292 314 333 339 6 22 27 40 41 42 40 42 55 102 107 125 123 138
239 240 236 240 243 248 253 256 260 265 268 270 267 258 269 275 286 280 278 280 285 284 287 273 268 270 276 295 314 331 351 9 28 28 46 48 50 49 52 67 112 127 131 146
236 232 232 236 240 246 249 249 259 266 264 262 260 245 263 278 281 274 273 275 279 281 278 279 271 267 263 276 288 306 330 352 14 29 30 52 59 59 57 68 79 103 129 158
232 231 229 235 239 245 248 252 256 260 257 256 257 250 262 264 267 274 277 275 269 273 271 270 268 263 260 265 270 274 290 320 350 10 22 34 50 66 71 68 70 85 104 112
234 232 234 237 244 251 250 253 256 257 255 252 256 257 258 264 267 274 276 269 269 265 269 265 261 262 255 256 261 264 265 278 302 334 360 3 17 46 58 75 85 84 81 85
225 232 236 241 244 246 247 253 257 256 244 250 249 254 253 258 265 269 275 268 262 263 268 266 260 261 259 252 255 258 260 260 270 280 303 337 341 340 22 53 65 92 103 105
227 227 231 238 243 241 245 249 249 254 246 247 237 249 256 261 261 264 268 265 261 257 260 267 267 256 256 249 248 252 255 253 258 263 270 283 290 301 305 291 292 181 162 149
232 234 235 237 238 239 238 237 245 264 247 237 235 247 254 258 259 257 258 260 258 253 257 268 263 253 252 252 245 247 253 256 260 262 265 274 276 281 280 279 275 268 258 253
230 233 238 237 240 246 249 248 257 260 245 235 234 239 245 249 253 253 254 257 261 257 250 256 264 254 252 254 247 246 248 251 256 263 269 273 273 273 280 282 281 282 277 266
231 232 235 239 239 243 245 250 248 250 252 242 234 231 242 245 250 251 253 253 256 257 251 254 261 266 262 255 252 249 252 258 260 260 261 264 267 265 271 277 280 281 279 278
232 233 233 238 242 244 245 247 248 242 246 241 231 227 235 241 243 247 253 253 257 256 252 252 258 263 264 258 258 263 260 254 263 266 260 258 259 265 272 275 275 274 275 274
228 231 237 243 238 241 243 245 242 242 240 234 233 227 230 237 242 244 250 252 251 252 255 255 257 263 262 258 254 256 255 260 263 271 262 264 269 273 276 279 278 276 276 277